Вернуться в каталог

FENGYUN 1C DEB

АктивенSSO
NORAD 46992·DEBRIS·🇨🇳 China

Запущен May 10, 1999 с Taiyuan Satellite Launch Center

Loading…

Ближайшие Пролёты (ближайшие 24 часа)

TLE

СвежийSource: Space-Track

Эпоха: Sep 12, 2026, 05:42 UTC

1 46992U 99025EZS 26255.23762112  .00000307  00000-0  22845-3 0  9993
2 46992  98.9566 240.8193 0072197 121.5220 239.3024 14.01035355647862

Отслеживайте FENGYUN 1C DEB в реальном времени с AllMySat

Download on the App Store